Location: Unspecified
(48.8656°N, 0.0000°E)
Time: 02:22:24
(UTC+00:00)

SR - Pass Details

Date: 04 July 2019
Orbit: 580 x 876 km, 66.7° (Epoch: 22 July)

Event Time Altitude Azimuth Distance (km) Brightness Sun altitude
Rises 03:26:38 0° 279° (W) 2,829 ? -5.3°
Reaches altitude 10° 03:30:01 10° 308° (NW) 1,966 ? -4.9°
Maximum altitude 03:32:07 13° 337° (NNW) 1,796 ? -4.6°
Drops below altitude 10° 03:34:17 10° 5° (N) 2,031 ? -4.4°
Sets 03:37:54 0° 33° (NNE) 3,010 ? -3.9°
